SBIRS GEO-5 (USA 315)

Last updated on Wed Sep 17 2025 00:02:50 GMT+0000 (Coordinated Universal Time)

1 48618U 21042A 25259.64659752 -.00000287 00000+0 00000+0 0 9999 2 48618 5.4690 327.2656 0005973 205.2438 150.2699 1.00267848 16029
UTC large
Height (km)
Speed (km/s)
/
Latitude / Longitude
Inclination (degrees)
Orbital Period (minutes)
Azimuth
Elevation
Range (km)
Doppler Factor

Next 0 passes for location: London (51.5072 / 0.1276)

Sorry there are no passes over London.